Terug naar catalogus

IRIDIUM 39

ActiefCommunicatiePO
NORAD 25042·PAYLOAD·🇺🇸 United States

Gelanceerd Nov 9, 1997 vanaf Vandenberg Space Force Base

Loading…

Volgende Passages (komende 24 uur)

TLE

VersSource: Space-Track

Epoch: Sep 14, 2026, 15:02 UTC

1 25042U 97069D   26257.62690226  .00000441  00000-0  10869-3 0  9995
2 25042  86.3950  16.1556 0016131 221.9073 138.0898 14.49842676514790

Volg IRIDIUM 39 in realtime met AllMySat

Download on the App Store